TimeCDT,TemperatureF,Dew PointF,Humidity,Sea Level PressureIn,VisibilityMPH,Wind Direction,Wind SpeedMPH,Gust SpeedMPH,PrecipitationIn,Events,Conditions,WindDirDegrees,DateUTC
12:15 AM,73.4,68.0,83,29.92,10.0,SSW,6.9,-,N/A,,Clear,200,2013-05-20 05:15:00
12:35 AM,73.4,68.0,83,29.92,10.0,South,9.2,-,N/A,,Clear,190,2013-05-20 05:35:00
12:55 AM,73.4,68.0,83,29.91,10.0,SSW,8.1,-,N/A,,Clear,210,2013-05-20 05:55:00
1:15 AM,71.6,68.0,88,29.92,10.0,SSW,6.9,-,N/A,,Clear,210,2013-05-20 06:15:00
1:35 AM,71.6,68.0,88,29.92,10.0,SSW,6.9,-,N/A,,Clear,200,2013-05-20 06:35:00
1:55 AM,71.6,68.0,88,29.91,10.0,South,9.2,-,N/A,,Clear,180,2013-05-20 06:55:00
2:15 AM,71.6,68.0,88,29.91,10.0,South,6.9,-,N/A,,Clear,190,2013-05-20 07:15:00
2:35 AM,71.6,68.0,88,29.91,10.0,South,5.8,-,N/A,,Clear,190,2013-05-20 07:35:00
2:55 AM,71.6,68.0,88,29.91,10.0,SSW,9.2,-,N/A,,Clear,200,2013-05-20 07:55:00
3:15 AM,71.6,68.0,88,29.91,10.0,South,8.1,-,N/A,,Clear,190,2013-05-20 08:15:00
3:35 AM,71.6,68.0,88,29.92,10.0,SSW,5.8,-,N/A,,Clear,200,2013-05-20 08:35:00
3:55 AM,69.8,68.0,94,29.93,10.0,SSW,6.9,-,N/A,,Clear,210,2013-05-20 08:55:00
4:15 AM,69.8,68.0,94,29.92,10.0,SSW,6.9,-,N/A,,Clear,200,2013-05-20 09:15:00
4:35 AM,69.8,68.0,94,29.92,9.0,SSW,6.9,-,N/A,,Clear,200,2013-05-20 09:35:00
4:55 AM,69.8,68.0,94,29.92,9.0,SSW,5.8,-,N/A,,Clear,200,2013-05-20 09:55:00
5:15 AM,69.8,68.0,94,29.93,8.0,South,5.8,-,N/A,,Clear,190,2013-05-20 10:15:00
5:35 AM,68.0,68.0,100,29.93,7.0,South,5.8,-,N/A,,Scattered Clouds,170,2013-05-20 10:35:00
5:55 AM,68.0,68.0,100,29.94,5.0,South,8.1,-,N/A,,Partly Cloudy,170,2013-05-20 10:55:00
6:15 AM,68.0,68.0,100,29.94,5.0,South,5.8,-,N/A,,Clear,180,2013-05-20 11:15:00
6:35 AM,68.0,68.0,100,29.94,5.0,South,6.9,-,N/A,,Clear,170,2013-05-20 11:35:00
6:55 AM,69.8,68.0,94,29.95,6.0,South,8.1,-,N/A,,Clear,170,2013-05-20 11:55:00
7:15 AM,71.6,68.0,88,29.96,7.0,SSW,8.1,-,N/A,,Clear,200,2013-05-20 12:15:00
7:35 AM,71.6,68.0,88,29.97,8.0,South,10.4,-,N/A,,Scattered Clouds,190,2013-05-20 12:35:00
7:55 AM,73.4,69.8,88,29.97,9.0,SW,6.9,-,N/A,,Mostly Cloudy,220,2013-05-20 12:55:00
8:15 AM,73.4,69.8,88,29.98,10.0,SW,9.2,-,N/A,,Overcast,220,2013-05-20 13:15:00
8:35 AM,75.2,69.8,83,29.98,10.0,SSW,8.1,-,N/A,,Overcast,210,2013-05-20 13:35:00
8:55 AM,75.2,69.8,83,29.97,10.0,SSW,9.2,16.1,N/A,,Overcast,200,2013-05-20 13:55:00
9:15 AM,75.2,69.8,83,29.98,10.0,SW,10.4,18.4,N/A,,Overcast,220,2013-05-20 14:15:00
9:35 AM,77.0,69.8,78,29.97,10.0,SW,13.8,19.6,N/A,,Mostly Cloudy,220,2013-05-20 14:35:00
9:55 AM,77.0,69.8,78,29.98,10.0,SW,12.7,16.1,N/A,,Mostly Cloudy,220,2013-05-20 14:55:00
10:15 AM,78.8,71.6,78,29.99,10.0,WSW,11.5,-,N/A,,Overcast,240,2013-05-20 15:15:00
10:35 AM,78.8,69.8,74,29.99,10.0,WSW,9.2,-,N/A,,Overcast,240,2013-05-20 15:35:00
10:55 AM,78.8,68.0,69,29.99,10.0,SW,8.1,-,N/A,,Overcast,220,2013-05-20 15:55:00
11:15 AM,80.6,71.6,74,29.98,10.0,SW,11.5,17.3,N/A,,Mostly Cloudy,230,2013-05-20 16:15:00
11:35 AM,80.6,69.8,70,29.97,10.0,SSW,9.2,-,N/A,,Scattered Clouds,200,2013-05-20 16:35:00
11:55 AM,80.6,69.8,70,29.96,10.0,South,11.5,18.4,N/A,,Partly Cloudy,190,2013-05-20 16:55:00
12:15 PM,82.4,68.0,62,29.96,10.0,SW,10.4,17.3,N/A,,Scattered Clouds,230,2013-05-20 17:15:00
12:35 PM,82.4,68.0,62,29.95,10.0,SW,11.5,16.1,N/A,,Scattered Clouds,220,2013-05-20 17:35:00
12:55 PM,82.4,68.0,62,29.95,10.0,SSW,10.4,17.3,N/A,,Partly Cloudy,210,2013-05-20 17:55:00
1:35 PM,82.4,68.0,62,29.95,10.0,SSW,9.2,18.4,N/A,,Mostly Cloudy,200,2013-05-20 18:35:00
1:55 PM,84.2,68.0,58,29.95,10.0,South,9.2,-,N/A,,Scattered Clouds,190,2013-05-20 18:55:00
2:15 PM,82.4,68.0,62,29.95,10.0,SSW,12.7,17.3,N/A,,Partly Cloudy,200,2013-05-20 19:15:00
2:35 PM,84.2,68.0,58,29.94,10.0,South,9.2,17.3,N/A,,Partly Cloudy,190,2013-05-20 19:35:00
2:55 PM,84.2,68.0,58,29.93,10.0,SSW,9.2,16.1,N/A,,Clear,200,2013-05-20 19:55:00
3:15 PM,84.2,69.8,62,29.93,10.0,South,8.1,16.1,N/A,,Partly Cloudy,180,2013-05-20 20:15:00
3:35 PM,84.2,69.8,62,29.92,10.0,SSW,11.5,-,N/A,,Partly Cloudy,200,2013-05-20 20:35:00
3:55 PM,84.2,68.0,58,29.91,10.0,South,13.8,19.6,N/A,,Scattered Clouds,180,2013-05-20 20:55:00
4:15 PM,84.2,68.0,58,29.91,10.0,South,9.2,18.4,N/A,,Partly Cloudy,190,2013-05-20 21:15:00
4:35 PM,84.2,68.0,58,29.91,10.0,SSW,10.4,19.6,N/A,,Clear,200,2013-05-20 21:35:00
4:55 PM,82.4,68.0,62,29.90,10.0,South,9.2,-,N/A,,Scattered Clouds,180,2013-05-20 21:55:00
5:15 PM,84.2,68.0,58,29.89,10.0,South,10.4,16.1,N/A,,Partly Cloudy,180,2013-05-20 22:15:00
5:35 PM,82.4,68.0,62,29.89,10.0,South,11.5,19.6,N/A,,Clear,180,2013-05-20 22:35:00
5:55 PM,82.4,68.0,62,29.87,10.0,South,10.4,-,N/A,,Clear,180,2013-05-20 22:55:00
6:15 PM,82.4,68.0,62,29.87,10.0,South,9.2,17.3,N/A,,Partly Cloudy,170,2013-05-20 23:15:00
6:35 PM,82.4,68.0,62,29.86,10.0,South,10.4,-,N/A,,Partly Cloudy,170,2013-05-20 23:35:00
6:55 PM,80.6,69.8,70,29.85,10.0,SSE,8.1,-,N/A,,Clear,160,2013-05-20 23:55:00
7:15 PM,80.6,69.8,70,29.85,10.0,SSE,10.4,-,N/A,,Clear,160,2013-05-21 00:15:00
7:35 PM,80.6,68.0,65,29.86,10.0,South,8.1,17.3,N/A,,Clear,170,2013-05-21 00:35:00
7:55 PM,78.8,68.0,69,29.86,10.0,South,9.2,-,N/A,,Clear,170,2013-05-21 00:55:00
8:15 PM,78.8,68.0,69,29.86,10.0,South,9.2,-,N/A,,Clear,170,2013-05-21 01:15:00
8:35 PM,77.0,68.0,74,29.88,10.0,South,8.1,-,N/A,,Clear,170,2013-05-21 01:35:00
8:55 PM,77.0,68.0,74,29.87,10.0,South,8.1,-,N/A,,Clear,170,2013-05-21 01:55:00
9:15 PM,77.0,68.0,74,29.88,10.0,SSE,9.2,16.1,N/A,,Clear,160,2013-05-21 02:15:00
9:35 PM,77.0,68.0,74,29.87,10.0,South,8.1,-,N/A,,Clear,170,2013-05-21 02:35:00
9:55 PM,77.0,68.0,74,29.88,10.0,South,9.2,-,N/A,,Clear,180,2013-05-21 02:55:00
10:15 PM,77.0,68.0,74,29.89,10.0,South,10.4,16.1,N/A,,Clear,170,2013-05-21 03:15:00
10:35 PM,75.2,68.0,78,29.89,10.0,South,6.9,16.1,N/A,,Clear,190,2013-05-21 03:35:00
10:55 PM,75.2,68.0,78,29.90,10.0,South,8.1,-,N/A,,Clear,180,2013-05-21 03:55:00
11:15 PM,75.2,68.0,78,29.91,10.0,South,8.1,-,N/A,,Clear,180,2013-05-21 04:15:00
11:35 PM,75.2,68.0,78,29.91,10.0,South,8.1,-,N/A,,Clear,180,2013-05-21 04:35:00
11:55 PM,75.2,68.0,78,29.92,10.0,South,6.9,-,N/A,,Clear,190,2013-05-21 04:55:00